{"data":{"norad_id":28419,"epoch":"2026-09-19T22:37:36.895296Z","epoch_age_seconds":62487,"freshness":"FRESH","line1":"1 28419U 04037A   26262.94278814  .00000088  00000+0  54559-3 0  9995","line2":"2 28419  82.4797 266.4967 0017122  62.7697 297.5126 12.45682313999704","mean_motion":12.45682313,"eccentricity":0.0017122,"inclination_deg":82.4797,"raan_deg":266.4967,"arg_perigee_deg":62.7697,"mean_anomaly_deg":297.5126,"bstar":0.00054559,"rev_number":99970,"period_min":115.59929726641,"perigee_km":1469.1476481102,"apogee_km":1496.0659792257,"semimajor_km":7860.743813668,"source":"CELESTRAK","updated_at":"2026-09-20T09:00:13.600133Z"}}